www.pogodaiklimat.ru

Погода и климат >> Архив погоды >> Россия >> Краснодарский край >> Тихорецк


ПОГОДА в Тихорецке

  • Прогноз погоды в Тихорецке
  • Монитор погоды в Тихорецке

АРХИВ ПОГОДЫ в Тихорецке

Время (UTC), дата Ветер
(напр.,м/с)
 
Видим.   Явления Облачность Т
(С)
Тd
(С)
f
(%)
Тe
(С)
Тes
(С)
Комфортность P
(гПа)
Po
(гПа)
Тmin
(С)
Tmax
(С)
R
(мм)
R24
(мм)
S
(см)
12 12.06 В 2 10 км 10/4 1000 м
[Cb cap Ac cuf Ci fib]
+29.5 +13.8 38 +31 +35 жарко 1009.1 1000.3
15 12.06 Ю 1 10 км 10/8 1000 м
[Cb cap Ac As]
+28.9 +16.0 46 +32 +32 душно 1008.3 999.5 +31.3
18 12.06 штиль 0 10 км 10/0
[Ac As]
+25.5 +13.4 47 +28 +28 жарко 1009.1 1000.2
21 12.06 штиль 0 10 км 10/0
[Ac As]
+22.3 +14.7 62 +26 +26 жарко 1009.1 1000.1
00 13.06 С 1 10 км 10/0
[Ac As]
+21.0 +14.0 64 +25 +25 комфорт 1009.0 999.9
03 13.06 В 2 10 км 10/0
[Ac As]
+21.8 +11.4 52 +24 +24 комфорт 1009.3 1000.3 +20.1
06 13.06 В 2 10 км 6/0
[Ac trans]
+27.4 +12.1 39 +29 +34 жарко 1010.6 1001.8
09 13.06 СВ 4 10 км 10/0
[Ac As]
+30.6 +7.3 23 +29 +33 жарко 1010.5 1001.7
12 13.06 СВ 5
{11}
10 км 10/3
[Cu hum Ac As]
+27.8 +8.8 30 +28 +29 жарко 1010.9 1002.0
15 13.06 ЮВ 3
{10}
10 км гроза, ливневой дождь 10/8 600 м
[Cb cap Ac As]
+21.7 +15.6 68 +25 +25 комфорт 1011.9 1002.9 +30.8 0.8
18 13.06 СВ 1 10 км {гроза, ливн. осадки} 10/5 600 м
[Cb calv Ac trans]
+22.5 +16.1 67 +27 +27 душно 1012.1 1003.1
21 13.06 В 1 10 км 10/4
[Cu hum Ac trans]
+20.5 +14.7 69 +24 +24 комфорт 1013.0 1003.9
00 14.06 С 1 10 км 10/4 1000 м
[Cb cap Ac trans]
+19.5 +14.9 75 +22 +22 комфорт 1013.3 1004.2
03 14.06 СВ 4
{10}
10 км {ливн. осадки} 8/0
[Ac trans]
+20.9 +12.4 58 +23 +24 комфорт 1014.5 1005.4 +19.2 0.3
06 14.06 СВ 5-10
{10}
10 км {ливн. осадки} 10/0
[]
+22.8 +10.2 45 +25 +28 комфорт 1015.5 1006.5
09 14.06 СВ 4
{13}
10 км 8/0
[Ci fib]
+27.1 +8.7 31 +27 +38 жарко 1015.9 1007.0
12 14.06 СВ 4
{13}
10 км ясно +30.9 +9.1 26 +30 +39 жарко 1014.5 1005.7
15 14.06 СВ 4 10 км ясно +30.4 +7.8 24 +29 +31 жарко 1013.9 1005.1 +31.2
18 14.06 СВ 3 10 км ясно +25.0 +7.5 33 +25 +25 комфорт 1014.3 1005.3
21 14.06 СВ 3 10 км ясно +21.4 +6.1 37 +22 +22 комфорт 1013.8 1004.7
00 15.06 СВ 3 10 км ясно +19.5 +2.9 33 +20 +20 1013.5 1004.4
03 15.06 СВ 2 10 км ясно +18.8 +5.0 40 +20 +21 1013.7 1004.6 +17.6
06 15.06 СВ 3 10 км 3/0
[Ci fib]
+26.0 +14.1 48 +28 +37 жарко 1013.3 1004.4
09 15.06 В 3 10 км 8/0
[Ci sp]
+30.9 +10.0 27 +30 +44 жарко 1012.6 1003.8
12 15.06 С 4 10 км 6/0
[Ci fib]
+32.6 +8.0 22 +31 +39 жарко 1011.0 1002.3
15 15.06 СВ 3 10 км ясно +31.8 +6.3 20 +30 +32 жарко 1009.9 1001.1 +32.8
18 15.06 С 1 10 км ясно +24.5 +10.7 42 +26 +26 жарко 1010.5 1001.6
21 15.06 СВ 3 10 км ясно +23.2 +5.1 31 +23 +23 комфорт 1010.5 1001.5
00 16.06 СВ 1 10 км ясно +20.1 +4.8 37 +22 +22 комфорт 1009.4 1000.4
03 16.06 СВ 2 10 км ясно +20.6 +5.0 36 +22 +23 комфорт 1009.6 1000.5 +17.8
06 16.06 СВ 2 10 км ясно +27.6 +10.4 34 +28 +39 жарко 1009.9 1001.0
09 16.06 СВ 1 10 км ясно +32.8 +11.5 27 +33 +55 опасность
солнечного
удара
1009.2 1000.5
12 16.06 СВ 2 10 км 3/3 1000 м
[Cu hum]
+34.1 +8.5 21 +33 +42 жарко 1008.2 999.5
15 16.06 СЗ 1 10 км 3/3 1000 м
[Cb calv Ac trans]
+33.6 +7.8 20 +32 +34 жарко 1007.6 998.9 +34.6
18 16.06 С 1 10 км 4/0
[Ac trans]
+24.7 +11.2 43 +26 +26 жарко 1007.2 998.3
21 16.06 С 1 10 км ясно +24.1 +8.1 36 +25 +25 комфорт 1007.4 998.4
00 17.06 СВ 3 10 км 3/0
[Ci fib]
+20.5 +14.8 70 +24 +24 комфорт 1008.5 999.5
03 17.06 СВ 2 10 км 3/0
[Ci fib]
+19.9 +14.8 72 +23 +24 комфорт 1009.7 1000.7 +19.5
06 17.06 СВ 4 10 км ясно +24.0 +13.6 52 +26 +34 жарко 1010.7 1001.7
09 17.06 СВ 4 10 км ясно +28.4 +13.6 40 +30 +43 жарко 1010.8 1002.0
12 17.06 СВ 4 10 км ясно +31.0 +12.5 32 +32 +41 жарко 1009.8 1001.1
15 17.06 С 3 10 км ясно +30.7 +11.6 31 +31 +33 жарко 1009.9 1001.1 +31.6
18 17.06 СВ 3 10 км ясно +25.5 +11.1 40 +27 +27 жарко 1011.0 1002.1
21 17.06 СВ 3 10 км ясно +22.1 +9.9 46 +24 +24 комфорт 1011.7 1002.6
00 18.06 С 3 10 км ясно +19.1 +9.5 54 +20 +20 1011.8 1002.7
03 18.06 СВ 3 10 км ясно +19.5 +9.5 52 +21 +22 комфорт 1012.4 1003.3 +18.4
06 18.06 СВ 3 10 км ясно +26.6 +10.9 37 +27 +36 жарко 1012.3 1003.4
09 18.06 СВ 3 10 км ясно +30.5 +9.3 27 +30 +46 жарко 1012.0 1003.2
12 18.06 С 2 10 км ясно +32.1 +6.8 21 +30 +44 жарко 1010.9 1002.1
15 18.06 С 2 10 км ясно +31.4 +5.7 20 +30 +32 жарко 1010.0 1001.2 +32.3
18 18.06 С 2 10 км ясно +24.6 +9.2 38 +25 +25 комфорт 1010.8 1001.9
21 18.06 С 3 10 км ясно +22.4 +10.1 46 +24 +24 комфорт 1011.3 1002.3
00 19.06 СВ 2 10 км ясно +20.5 +10.3 52 +23 +23 комфорт 1011.1 1002.0
03 19.06 СВ 3 10 км ясно +20.9 +10.5 51 +23 +24 комфорт 1010.9 1001.8 +18.8
06 19.06 СВ 3 10 км ясно +29.2 +10.0 30 +29 +38 жарко 1010.8 1002.0
09 19.06 СВ 3 10 км ясно +32.4 +9.2 24 +31 +47 жарко 1010.7 1002.0

 

Местоположение метеостанции Тихорецк (Краснодарский край, Россия): широта 45.85 долгота 40.08 высота над уровнем моря 78 м.

В архиве по умолчанию представлена погода в Тихорецке за последнюю неделю. Архивные данные за месяц целиком и за предыдущие месяцы, начиная с января 2011 года, Вы можете получить, выбрав интересующий диапазон дат из раскрывающегося списка и нажав кнопку "Ввод!".


*Определитесь, кто Вы:
робот инопланетянин человек

Внимание! Время в таблицах - всемирное. Для получения местного времени необходимо прибавить поправку, которая равна 3 ч.

Смотрите также архив погоды в соседних городах и на ближайших метеорологических станциях:

Погода в Сосыке (Краснодарский край, Россия) (37 км)
Погода в Кропоткине (Краснодарский край, Россия) (60 км)
Погода в Кореновске (Краснодарский край, Россия) (63 км)
Погода в Белой Глине (Краснодарский край, Россия) (67 км)
Погода в Усть-Лабинске (Краснодарский край, Россия) (74 км)
Погода в Кущевской (Краснодарский край, Россия) (84 км)
Погода в Каневской (Краснодарский край, Россия) (89 км)
Погода в Тимашевске (Краснодарский край, Россия) (93 км)
Погода в Новоалександровске (Ставропольский край, Россия) (95 км)
Погода в Красногвардейском (Ставропольский край, Россия) (109 км)

Пояснения к столбцам:

Ветер - указаны скорость ветра в м/с - средняя за 10 мин, порывы в срок и между сроками (в фигурных скобках) и направление, откуда дует ветер: С - северный, СВ - северо-восточный, В - восточный, ЮВ - юго-восточный, Ю - южный, ЮЗ - юго-западный, З - западный, СЗ - северо-западный.
Видимость - горизонтальная дальность видимости в метрах или километрах. При видимости от 1 до 10 км при отсутствии осадков обычно наблюдается дымка, при ухудшении видимости до 1 км и менее - туман. В сухую погоду видимость может ухудшаться дымом, пылью или мглою.
Явления - указаны атмосферные явления, наблюдавшиеся в срок или в последний час перед сроком; фигурными скобками обозначены явления, наблюдавшиеся между сроками (за 1-3 часа до срока); квадратными скобками обозначены град или гололедные отложения с указанием их диаметра в мм.
Облачность - указаны через наклонную черту общая и нижняя облачность в баллах и высота нижней границы облаков в метрах; квадратными скобками обозначены формы облаков: Ci - перистые, Cs - перисто-слоистые, Cc - перисто-кучевые, Ac - высококучевые, As - высокослоистые, Sc - слоисто-кучевые, Ns - слоисто-дождевые, Cu - кучевые, Cb - кучево-дождевые. Подробнее классификацию облаков см. в Атласе облаков (PDF).
T - Температура воздуха - температура, измеренная на высоте 2 м над землей.
Td - Температура точки росы - температура, при понижении до которой содержащийся в воздухе водяной пар достигнет насыщения.
f - Относительная влажность воздуха - влажноcть воздуха, измеренная на высоте 2 м над землей.
Te - Эффективная температура - температура, которую ощущает одетый по сезону человек в тени. Характеристика душности погоды. При расчете учитывается влияние влажности воздуха и скорости ветра на теплоощущения человека.
Tes - Эффективная температура на солнце - температура, которую ощущает человек, с поправкой на солнечный нагрев. Характеристика знойности погоды. Зависит от высоты солнца над горизонтом, облачности и скорости ветра. Ночью, в пасмурную погоду, а также при ветре 12 м/с и более поправка равна нулю.
P - Атмосферное давление - приведенное к уровню моря атмосферное давление.
Po - Атмосферное давление - измеренное на уровне метеостанции атмосферное давление.
Tmin - Минимальная температура - минимум температуры воздуха на высоте 2 м над землей.
Tmax - Максимальная температура - максимум температуры воздуха на высоте 2 м над землей.
R - Количество осадков - Количество выпавших осадков за период времени, мм. При наведении курсора мыши на число - период времени, за который выпало указанное количество осадков.
R24 - Количество осадков - Количество выпавших осадков за 24 часа, мм.
S - Снежный покров - Высота снежного покрова, см. При наведении курсора мыши на число - состояние снежного покрова и степень покрытия местности в баллах.